Flag for Netherlands Weather past 2 weeks in Leiden, Netherlands

Now
45 °F

Overcast.


Feels Like: 41 °F
Forecast: 42 / 52 °F
Wind: 7 mph from Southwest

Location: Rotterdam Zestienhoven Airport

Current Time: Mar 6, 2015 at 1:07:37 AM

Latest Report: Mar 6, 2015 at 12:25 AM


Visibility: N/A

Pressure: 30.60 "Hg

Humidity: 81%

Dew point: 39 °F

Location of LeidenLocation

Historic Weather in Leiden — Graph

°F

Leiden temperature yesterday

Maximum temperature yesterday: 48 °F (at 12:25 PM)
Minimum temperature yesterday: 32 °F (at 5:25 AM)
Average temperature yesterday: 42 °F

Past Weeks' High & Low Weather Summary

 TemperatureHumidityPressure
High50 °F (Mar 1, 11:25 AM)100% (Feb 19, 4:25 AM)30.66 "Hg (Feb 19, 4:25 AM)
Low30 °F (Feb 22, 2:25 AM)53% (Mar 2, 5:25 PM)29.27 "Hg (Feb 23, 3:25 AM)
Average42 °F82%29.86 "Hg
* Reported Feb 18 11:25 PM — Mar 5 11:55 PM, Leiden, Weather by CustomWeather, © 2015

Note: Actual official high and low records may vary slightly from our data, if they occured in-between our weather recording intervals... More about our weather records

Advertising

Leiden weather history for previous 24 hours

 ConditionsComfort  
Time TempWeatherWind HumidityBarometerVisibility
11:55 PM
Thu, Mar 5
45 °FOvercast.8 mph81%30.60 "HgN/A
11:25 PM43 °FOvercast.7 mph87%30.60 "HgN/A
10:55 PM45 °FOvercast.7 mph76%30.60 "HgN/A
10:25 PM43 °FOvercast.7 mph81%30.60 "HgN/A
9:55 PM43 °FMostly cloudy.7 mph81%30.63 "HgN/A
9:25 PM43 °FOvercast.6 mph81%30.63 "HgN/A
8:55 PM43 °FOvercast.9 mph81%30.63 "HgN/A
8:25 PM43 °FOvercast.8 mph81%30.63 "HgN/A
7:55 PM43 °FOvercast.8 mph81%30.63 "HgN/A
7:25 PM41 °FPassing clouds.7 mph87%30.63 "HgN/A
6:55 PM43 °FQuite cool.8 mph76%30.63 "HgN/A
6:25 PM43 °FClear.7 mph76%30.63 "HgN/A
5:55 PM45 °FClear.8 mph71%30.63 "HgN/A
5:25 PM45 °FClear.9 mph71%30.63 "HgN/A
4:55 PM46 °FClear.10 mph66%30.63 "HgN/A
4:25 PM46 °FClear.12 mph71%30.63 "HgN/A
3:55 PM46 °FClear.12 mph66%30.63 "HgN/A
3:25 PM48 °FClear.14 mph62%30.63 "HgN/A
2:55 PM46 °FPassing clouds.12 mph71%30.63 "HgN/A
2:25 PM48 °FClear.13 mph71%30.63 "HgN/A
1:55 PM48 °FClear.12 mph71%30.63 "HgN/A
1:25 PM48 °FPassing clouds.13 mph71%30.63 "HgN/A
12:55 PM48 °FClear.9 mph71%30.66 "HgN/A
12:25 PM48 °FClear.12 mph66%30.66 "HgN/A
11:55 AM46 °FClear.10 mph76%30.66 "HgN/A
11:25 AM46 °FPassing clouds.8 mph82%30.66 "HgN/A
10:55 AM45 °FPartly sunny.7 mph87%30.66 "HgN/A
10:25 AM45 °FBroken clouds.8 mph87%30.66 "HgN/A
9:55 AM43 °FPassing clouds.7 mph87%30.66 "HgN/A
9:25 AM43 °FClear.7 mph87%30.66 "HgN/A
8:55 AM39 °FClear.6 mph93%30.66 "HgN/A
8:25 AM37 °FClear.7 mph93%30.66 "HgN/A
7:55 AM36 °FClear.6 mph93%30.66 "HgN/A
7:25 AM36 °FClear.5 mph93%30.63 "HgN/A
6:55 AM34 °FClear.5 mph100%30.63 "HgN/A
6:25 AM34 °FClear.3 mph100%30.63 "Hg4 mi
5:55 AM34 °FFog.3 mph93%30.63 "Hg2 mi
5:25 AM32 °FChilly.2 mph100%30.63 "Hg4 mi
4:25 AM36 °FChilly.5 mph93%30.60 "Hg6 mi
3:55 AM36 °FClear.5 mph93%30.60 "HgN/A
2:55 AM36 °FChilly.6 mph93%30.60 "HgN/A
2:25 AM36 °FClear.6 mph93%30.60 "HgN/A
1:55 AM37 °FChilly.6 mph93%30.57 "HgN/A
1:25 AM39 °FChilly.7 mph87%30.57 "HgN/A
Weather by CustomWeather, © 2015

See weather overviewHow to use our weather pages